Location: Unspecified
(49.9820°N, 20.4363°E)
Time: 04:07:22
(UTC+02:00)

Vanguard 3 - Pass Details

Date: 18 May 2026
Orbit: 507 x 3204 km, 33.3° (Epoch: 6 June)

Event Time Altitude Azimuth Distance (km) Brightness Sun altitude
Rises 12:31:06 0° 215° (SW) 6,135 12.0 59.6°
Reaches altitude 10° 12:35:26 10° 206° (SSW) 5,442 11.9 59.6°
Maximum altitude 12:49:47 33° 151° (SSE) 4,422 11.9 59.5°
Drops below altitude 10° 13:05:25 10° 97° (E) 5,962 11.6 59.0°
Sets 13:10:24 0° 89° (E) 6,778 11.8 58.8°
